Kayseri, Turkey

11:21 PM +03 on April 23, 2017 (GMT +0300)
Erkilet Air Base

Weather History for LTAU - June, 2013

Change the Weather History Date:

Sunday, June 23, 2013

  Actual Average Record
Temperature  
Mean Temperature 67 °F -  
Max Temperature 88 °F 83 °F 91 °F (2016)
Min Temperature 46 °F 53 °F 42 °F (2005)
Cooling Degree Days 2    
Growing Degree Days 17 (Base 50)    
Moisture  
Dew Point 39 °F    
Average Humidity 40    
Maximum Humidity 87    
Minimum Humidity 6    
Precipitation  
Precipitation 0.00 in - - ()
Sea Level Pressure  
Sea Level Pressure 29.95 in    
Wind  
Wind Speed 3 mph ()    
Max Wind Speed 14 mph    
Max Gust Speed -    
Visibility 12.0 miles    
Events      
Averages and records for this station are not official NWS values.
T = Trace of Precipitation, MM = Missing Value Source: Averaged Metar Reports

Daily Weather History Graph

Daily Weather History Graph

Search for Another Location

Airport or City:

Trip Planner

Search our weather history database for the weather conditions in past years. The results will help you decide how hot, cold, wet, or windy it might be!

Date:

Astronomy

Jun. 23, 2013 Rise Set
Actual Time 5:13 AM EEST 8:07 PM EEST
Civil Twilight 4:41 AM EEST 8:39 PM EEST
Nautical Twilight 4:01 AM EEST 9:19 PM EEST
Astronomical Twilight 3:15 AM EEST 10:05 PM EEST
Moon 8:01 PM EEST 5:07 AM EEST
Length of Visible Light 15h 57m
Length of Day
14h 53m
Full, 100% of the Moon is Illuminated
Jun 23
Full
Jun 23
Full
Jun 30
Last Quarter
Jul 8
New
Jul 16
First Quarter

Hourly Weather History & Observations

Time (EEST) Temp. Dew Point Humidity Pressure Visibility Wind Dir Wind Speed Gust Speed Precip Events Conditions
12:20 AM 60.8 °F 42.8 °F 52% 29.98 in - NE 6.9 mph - N/A   Clear
12:50 AM 59.0 °F 44.6 °F 59% 29.98 in - Variable 2.3 mph - N/A   Clear
1:20 AM 57.2 °F 44.6 °F 63% 29.98 in - NNE 4.6 mph - N/A   Clear
1:50 AM 55.4 °F 44.6 °F 67% 29.98 in - NNE 5.8 mph - N/A   Clear
2:20 AM 53.6 °F 44.6 °F 72% 29.98 in - Calm Calm - N/A   Clear
2:50 AM 53.6 °F 42.8 °F 67% 29.98 in - Calm Calm - N/A   Clear
3:00 AM 53 °F 44 °F 61%  in 12 mi Calm Calm - -  
3:20 AM 50.0 °F 42.8 °F 76% 29.98 in - Calm Calm - N/A   Clear
3:50 AM 50.0 °F 42.8 °F 76% 29.98 in - Calm Calm - N/A   Clear
4:20 AM 48.2 °F 44.6 °F 87% 29.98 in - Calm Calm - N/A   Clear
4:50 AM 50.0 °F 42.8 °F 76% 30.01 in - NNE 1.2 mph - N/A   Clear
5:20 AM 46.4 °F 41.0 °F 81% 30.01 in - Calm Calm - N/A   Clear
5:50 AM 50.0 °F 44.6 °F 82% 30.01 in - NNE 3.5 mph - N/A   Clear
6:20 AM 53.6 °F 44.6 °F 72% 30.01 in - NNE 2.3 mph - N/A   Clear
6:50 AM 57.2 °F 44.6 °F 63% 30.01 in - NNE 1.2 mph - N/A   Clear
7:20 AM 59.0 °F 44.6 °F 59% 30.01 in - Variable 2.3 mph - N/A   Clear
7:50 AM 60.8 °F 46.4 °F 59% 30.01 in - Variable 2.3 mph - N/A   Clear
8:20 AM 64.4 °F 46.4 °F 52% 30.01 in - NNE 3.5 mph - N/A   Clear
8:50 AM 66.2 °F 44.6 °F 46% 30.01 in - NNE 6.9 mph - N/A   Clear
9:00 AM 66 °F 43 °F 32%  in 12 mi NNE 6.9 mph - -  
9:20 AM 68.0 °F 42.8 °F 40% 30.01 in - NE 4.6 mph - N/A   Clear
9:50 AM 69.8 °F 42.8 °F 38% 30.01 in - NNE 3.5 mph - N/A   Clear
10:20 AM 71.6 °F 41.0 °F 33% 29.98 in - Variable 2.3 mph - N/A   Clear
10:50 AM 73.4 °F 41.0 °F 31% 29.98 in - Variable 3.5 mph - N/A   Clear
11:20 AM 77.0 °F 37.4 °F 24% 29.98 in - Variable 2.3 mph - N/A   Clear
11:50 AM 77.0 °F 35.6 °F 22% 29.98 in - East 3.5 mph - N/A   Clear
12:20 PM 78.8 °F 35.6 °F 21% 29.95 in - Variable 2.3 mph - N/A   Clear
12:50 PM 80.6 °F 28.4 °F 15% 29.95 in - ESE 4.6 mph - N/A   Clear
1:20 PM 82.4 °F 30.2 °F 15% 29.95 in - Variable 4.6 mph - N/A   Clear
1:50 PM 84.2 °F 30.2 °F 14% 29.92 in - Variable 3.5 mph - N/A   Clear
2:20 PM 86.0 °F 28.4 °F 12% 29.92 in - Variable 2.3 mph - N/A   Clear
2:50 PM 86.0 °F 30.2 °F 13% 29.92 in - Variable 2.3 mph - N/A   Clear
3:00 PM 86 °F 28 °F 6%  in 12 mi SE 2.3 mph - -  
3:20 PM 86.0 °F 30.2 °F 13% 29.92 in - SSW 4.6 mph - N/A   Clear
3:50 PM 86.0 °F 32.0 °F 14% 29.89 in - Variable 2.3 mph - N/A   Clear
4:20 PM 86.0 °F 28.4 °F 12% 29.89 in - SE 3.5 mph - N/A   Clear
4:50 PM 87.8 °F 30.2 °F 13% 29.89 in - Variable 1.2 mph - N/A   Clear
5:20 PM 87.8 °F 28.4 °F 12% 29.89 in - South 3.5 mph - N/A   Clear
5:50 PM 87.8 °F 32.0 °F 14% 29.89 in - Variable 1.2 mph - N/A   Clear
6:20 PM 86.0 °F 30.2 °F 13% 29.86 in - Variable 1.2 mph - N/A   Clear
6:50 PM 86.0 °F 30.2 °F 13% 29.89 in - Calm Calm - N/A   Clear
7:20 PM 82.4 °F 42.8 °F 25% 29.86 in - Calm Calm - N/A   Clear
7:50 PM 82.4 °F 39.2 °F 21% 29.86 in - NNW 13.8 mph - N/A   Clear
8:20 PM 78.8 °F 39.2 °F 24% 29.86 in - North 11.5 mph - N/A   Clear
8:50 PM 75.2 °F 41.0 °F 29% 29.89 in - NNE 9.2 mph - N/A   Clear
9:00 PM 76 °F 40 °F 17%  in 12 mi NNE 9.2 mph - -  
9:20 PM 71.6 °F 41.0 °F 33% 29.89 in - NNE 8.1 mph - N/A   Clear
9:50 PM 69.8 °F 42.8 °F 38% 29.92 in - East 3.5 mph - N/A   Clear
10:20 PM 68.0 °F 42.8 °F 40% 29.92 in - Calm Calm - N/A   Clear
10:50 PM 68.0 °F 44.6 °F 43% 29.92 in - ENE 9.2 mph - N/A   Clear
11:20 PM 68.0 °F 44.6 °F 43% 29.92 in - ENE 8.1 mph - N/A   Clear
11:50 PM 64.4 °F 46.4 °F 52% 29.92 in - NE 5.8 mph - N/A   Clear